Retour au catalogue

FENGYUN 2E AKM

ActifGEO
NORAD 33465·ROCKET BODY·🇨🇳 China

Lancé Dec 23, 2008 depuis Xichang Satellite Launch Center

Loading…

TLE

FraisSource: Space-Track

Époque: Sep 14, 2026, 19:22 UTC

1 33465U 08066C   26257.80763545 -.00000149  00000-0  00000-0 0  9996
2 33465  10.0158  43.3688 0032618 325.7445  34.1063  1.02096194 48450

Suivez FENGYUN 2E AKM en temps réel avec AllMySat

Download on the App Store